DW1039 Weather Reports


Display with metric or nautical units.
time (UTC)temp
F
wind
direction
speed
MPH
gust
MPH
rain 1hr
in
rain 24hr
in
rain mn
in
humidity
%
barometer
mb
20260509223840 75 261 3.0 10.0 0.00 0.27 0.25 47 1006.8
20260509222840 75 253 0.0 6.0 0.00 0.27 0.25 48 1006.9
20260509221840 75 290 0.0 9.0 0.00 0.27 0.25 48 1006.7
20260509220840 75 223 0.0 7.0 0.00 0.27 0.25 49 1006.8
20260509215840 75 182 1.0 11.0 0.00 0.27 0.25 50 1007.0
20260509214840 75 250 2.0 10.0 0.00 0.27 0.25 50 1007.0
20260509213840 75 159 4.0 9.0 0.00 0.27 0.25 51 1007.1
20260509212840 74 221 5.0 10.0 0.00 0.27 0.25 49 1007.0
20260509211840 74 294 0.0 10.0 0.00 0.27 0.25 52 1007.1
20260509210839 75 261 0.0 6.0 0.00 0.27 0.25 53 1007.1
20260509205839 74 191 1.0 14.0 0.00 0.27 0.25 51 1007.2
20260509204839 75 223 0.0 10.0 0.00 0.27 0.25 50 1007.3
20260509164838 67 148 1.0 10.0 0.00 0.27 0.25 70 1009.0
20260509163838 66 290 1.0 7.0 0.00 0.27 0.25 71 1008.9
20260509162838 66 196 2.0 6.0 0.00 0.27 0.25 69 1009.1
20260509161838 66 238 6.0 6.0 0.00 0.27 0.25 70 1009.0
20260509160837 66 294 0.0 6.0 0.00 0.27 0.25 70 1008.9
20260509155837 67 293 3.0 9.0 0.00 0.27 0.25 68 1008.8
20260509154837 66 267 1.0 6.0 0.00 0.27 0.25 72 1008.7
20260509153837 65 223 2.0 5.0 0.00 0.27 0.25 72 1008.6
20260509152837 64 165 1.0 6.0 0.00 0.27 0.25 76 1008.6
20260509151837 64 258 1.0 4.0 0.00 0.27 0.25 77 1008.6
20260509112835 54 185 0.0 3.0 0.02 0.27 0.25 96 1008.0
20260509111835 54 181 0.0 2.0 0.03 0.27 0.25 96 1007.5
20260509110835 54 196 0.0 3.0 0.03 0.27 0.25 95 1007.7
20260509105835 54 178 1.0 3.0 0.04 0.27 0.25 95 1007.9
20260509063853 55 313 0.0 0.0 0.04 0.09 0.07 93 1010.0
20260509062834 55 9 0.0 0.0 0.03 0.08 0.06 93 1010.0